O'Neill, NE

1:31 PM CDT on May 26, 2018 (GMT -0500)
The O'Neill Municipal-Baker

Weather History for KONL - April, 2013

Change the Weather History Date:

Friday, April 5, 2013

  Actual Average Record
Temperature  
Mean Temperature 52 °F -  
Max Temperature 73 °F 55 °F 85 °F (1991)
Min Temperature 33 °F 29 °F 13 °F (1968)
Degree Days  
Heating Degree Days 12    
Growing Degree Days 2 (Base 50)    
Moisture  
Dew Point 30 °F    
Average Humidity 51    
Maximum Humidity 82    
Minimum Humidity 19    
Precipitation  
Precipitation 0.00 in - - ()
Sea Level Pressure  
Sea Level Pressure 29.86 in    
Wind  
Wind Speed 15 mph (SSE)    
Max Wind Speed 29 mph    
Max Gust Speed 38 mph    
Visibility 10 miles    
Events      
Averages and records for this station are not official NWS values.
T = Trace of Precipitation, MM = Missing Value Source: NWS Daily Summary

Daily Weather History Graph

Daily Weather History Graph

Search for Another Location

Airport or City:

Astronomy

Apr. 05, 2013 Rise Set
Actual Time 7:09 AM CDT 8:05 PM CDT
Civil Twilight 6:41 AM CDT 8:34 PM CDT
Nautical Twilight 6:07 AM CDT 9:08 PM CDT
Astronomical Twilight 5:31 AM CDT 9:44 PM CDT
Moon 4:23 AM CDT (4/5) 3:25 PM CDT (4/5)
Length of Visible Light 13h 53m
Length of Day
12h 55m
Waning Crescent, 23% of the Moon is Illuminated
Apr 5
Waning Crescent
Apr 10
New
Apr 18
First Quarter
Apr 25
Full
May 2
Last Quarter

Hourly Weather History & Observations

Time (CDT) Temp. Windchill Dew Point Humidity Pressure Visibility Wind Dir Wind Speed Gust Speed Precip Events Conditions
12:15 AM 37.4 °F 30.8 °F 25.5 °F 62% 30.11 in 10.0 mi ENE 9.2 mph - N/A   Clear
12:35 AM 36.1 °F 29.3 °F 25.7 °F 66% 30.11 in 10.0 mi ENE 9.2 mph - N/A   Clear
12:55 AM 35.8 °F 28.8 °F 25.9 °F 67% 30.11 in 10.0 mi ENE 9.2 mph - N/A   Clear
1:15 AM 35.8 °F 30.1 °F 26.6 °F 69% 30.11 in 10.0 mi ENE 6.9 mph - N/A   Clear
1:35 AM 36.3 °F 28.9 °F 27.1 °F 69% 30.11 in 10.0 mi East 10.4 mph - N/A   Clear
1:55 AM 35.8 °F 28.8 °F 27.3 °F 71% 30.11 in 10.0 mi East 9.2 mph - N/A   Clear
2:15 AM 35.1 °F 27.4 °F 27.5 °F 74% 30.11 in 10.0 mi East 10.4 mph - N/A   Clear
2:35 AM 35.4 °F 27.8 °F 27.5 °F 73% 30.11 in 10.0 mi East 10.4 mph - N/A   Clear
2:55 AM 35.1 °F 26.9 °F 27.5 °F 74% 30.11 in 10.0 mi East 11.5 mph - N/A   Clear
3:15 AM 34.3 °F 26.5 °F 27.5 °F 76% 30.11 in 10.0 mi East 10.4 mph - N/A   Clear
3:35 AM 33.4 °F 24.8 °F 27.5 °F 79% 30.10 in 10.0 mi East 11.5 mph - N/A   Clear
3:55 AM 33.3 °F 25.7 °F 27.5 °F 79% 30.09 in 10.0 mi East 9.2 mph - N/A   Scattered Clouds
4:15 AM 33.3 °F 24.6 °F 27.5 °F 79% 30.09 in 10.0 mi ESE 11.5 mph - N/A   Mostly Cloudy
4:35 AM 33.1 °F 25.5 °F 27.5 °F 80% 30.08 in 10.0 mi ESE 9.2 mph - N/A   Scattered Clouds
4:55 AM 33.3 °F 24.6 °F 27.9 °F 81% 30.08 in 10.0 mi ESE 11.5 mph - N/A   Mostly Cloudy
5:15 AM 33.3 °F 24.6 °F 27.9 °F 81% 30.08 in 10.0 mi ESE 11.5 mph - N/A   Mostly Cloudy
5:35 AM 33.1 °F 23.9 °F 27.5 °F 80% 30.07 in 10.0 mi ESE 12.7 mph 18.4 mph N/A   Mostly Cloudy
5:55 AM 33.4 °F 24.8 °F 28.0 °F 81% 30.07 in 10.0 mi SE 11.5 mph - N/A   Mostly Cloudy
6:15 AM 33.4 °F 24.8 °F 28.2 °F 81% 30.07 in 10.0 mi SE 11.5 mph - N/A   Mostly Cloudy
6:35 AM 33.8 °F 27.0 °F 28.4 °F 81% 30.07 in 10.0 mi SE 8.1 mph - N/A   Scattered Clouds
6:55 AM 34.2 °F 24.8 °F 28.4 °F 79% 30.07 in 10.0 mi SE 13.8 mph - N/A   Mostly Cloudy
7:15 AM 34.0 °F 22.7 °F 28.6 °F 81% 30.04 in 10.0 mi SE 19.6 mph 25.3 mph N/A   Mostly Cloudy
7:35 AM 34.0 °F 22.4 °F 28.8 °F 81% 30.04 in 10.0 mi SE 20.7 mph 26.5 mph N/A   Mostly Cloudy
7:55 AM 34.2 °F 23.3 °F 29.1 °F 82% 30.03 in 10.0 mi SE 18.4 mph 24.2 mph N/A   Overcast
8:15 AM 34.3 °F 24.2 °F 29.3 °F 82% 30.02 in 10.0 mi SE 16.1 mph 23.0 mph N/A   Overcast
8:35 AM 35.1 °F 24.5 °F 29.7 °F 81% 30.01 in 10.0 mi SE 18.4 mph 23.0 mph N/A   Overcast
8:55 AM 36.1 °F 26.2 °F 30.0 °F 78% 30.00 in 10.0 mi SE 17.3 mph - N/A   Overcast
9:15 AM 37.6 °F 28.4 °F 30.4 °F 75% 30.00 in 10.0 mi SE 16.1 mph - N/A   Mostly Cloudy
9:35 AM 38.7 °F 28.6 °F 30.6 °F 73% 29.97 in 10.0 mi SE 20.7 mph 31.1 mph N/A   Mostly Cloudy
9:55 AM 41.0 °F 30.7 °F 31.3 °F 68% 29.97 in 10.0 mi SSE 25.3 mph 31.1 mph N/A   Mostly Cloudy
10:15 AM 43.0 °F 35.4 °F 31.6 °F 64% 29.97 in 10.0 mi SSE 16.1 mph 27.6 mph N/A   Scattered Clouds
10:35 AM 44.6 °F 35.5 °F 31.8 °F 61% 29.95 in 10.0 mi SSE 25.3 mph 35.7 mph N/A   Clear
10:55 AM 46.8 °F - 32.0 °F 57% 29.93 in 10.0 mi SE 25.3 mph 29.9 mph N/A   Clear
11:15 AM 47.1 °F - 32.2 °F 56% 29.91 in 10.0 mi SSE 24.2 mph 31.1 mph N/A   Clear
11:35 AM 51.6 °F - 32.9 °F 49% 29.90 in 10.0 mi SSE 24.2 mph 31.1 mph N/A   Clear
11:55 AM 53.6 °F - 32.4 °F 44% 29.88 in 10.0 mi SSE 26.5 mph 31.1 mph N/A   Clear
12:15 PM 54.5 °F - 32.0 °F 42% 29.87 in 10.0 mi SSE 26.5 mph 35.7 mph N/A   Clear
12:35 PM 56.1 °F - 32.0 °F 40% 29.85 in 10.0 mi South 23.0 mph 34.5 mph N/A   Clear
12:55 PM 57.4 °F - 32.0 °F 38% 29.83 in 10.0 mi SSE 28.8 mph 35.7 mph N/A   Clear
1:15 PM 61.3 °F - 32.0 °F 33% 29.82 in 10.0 mi SSE 26.5 mph 32.2 mph N/A   Clear
1:35 PM 64.9 °F - 29.3 °F 26% 29.81 in 10.0 mi South 24.2 mph 34.5 mph N/A   Clear
1:55 PM 65.3 °F - 28.0 °F 25% 29.79 in 10.0 mi South 28.8 mph 35.7 mph N/A   Clear
2:15 PM 65.3 °F - 28.4 °F 25% 29.78 in 10.0 mi South 25.3 mph 35.7 mph N/A   Clear
2:35 PM 65.5 °F - 28.8 °F 25% 29.76 in 10.0 mi South 26.5 mph 33.4 mph N/A   Clear
2:55 PM 66.7 °F - 29.7 °F 25% 29.75 in 10.0 mi South 25.3 mph 33.4 mph N/A   Clear
3:15 PM 66.7 °F - 29.7 °F 25% 29.74 in 10.0 mi South 25.3 mph 31.1 mph N/A   Clear
3:35 PM 67.8 °F - 28.8 °F 23% 29.71 in 10.0 mi SSE 21.9 mph 34.5 mph N/A   Clear
3:55 PM 69.6 °F - 27.7 °F 21% 29.70 in 10.0 mi South 24.2 mph 34.5 mph N/A   Clear
4:15 PM 71.2 °F - 27.9 °F 20% 29.69 in 10.0 mi South 25.3 mph 31.1 mph N/A   Clear
4:35 PM 72.9 °F - 28.4 °F 19% 29.67 in 10.0 mi South 24.2 mph 32.2 mph N/A   Clear
4:55 PM 72.9 °F - 28.9 °F 20% 29.66 in 10.0 mi South 19.6 mph 35.7 mph N/A   Clear
5:15 PM 72.5 °F - 29.3 °F 20% 29.65 in 10.0 mi South 24.2 mph 38.0 mph N/A   Clear
5:35 PM 72.3 °F - 29.3 °F 20% 29.65 in 10.0 mi South 28.8 mph 35.7 mph N/A   Clear
5:55 PM 71.2 °F - 29.8 °F 22% 29.64 in 10.0 mi South 19.6 mph 32.2 mph N/A   Clear
6:15 PM 70.9 °F - 30.0 °F 22% 29.64 in 10.0 mi South 18.4 mph 33.4 mph N/A   Clear
6:35 PM 70.5 °F - 30.4 °F 23% 29.63 in 10.0 mi SSE 16.1 mph 31.1 mph N/A   Clear
6:55 PM 69.6 °F - 31.3 °F 24% 29.62 in 10.0 mi South 17.3 mph - N/A   Clear
7:15 PM 68.4 °F - 31.5 °F 25% 29.62 in 10.0 mi SSE 16.1 mph 20.7 mph N/A   Clear
7:35 PM 68.0 °F - 30.9 °F 25% 29.61 in 10.0 mi SSE 15.0 mph - N/A   Scattered Clouds
7:55 PM 69.1 °F - 30.7 °F 24% 29.61 in 10.0 mi South 18.4 mph - N/A   Mostly Cloudy
8:15 PM 67.6 °F - 31.3 °F 26% 29.61 in 10.0 mi South 15.0 mph 23.0 mph N/A   Mostly Cloudy
8:35 PM 67.1 °F - 32.0 °F 27% 29.60 in 10.0 mi South 18.4 mph 23.0 mph N/A   Mostly Cloudy
8:55 PM 65.3 °F - 32.9 °F 30% 29.61 in 10.0 mi South 15.0 mph - N/A   Scattered Clouds
9:15 PM 64.6 °F - 33.4 °F 31% 29.60 in 10.0 mi South 16.1 mph 25.3 mph N/A   Scattered Clouds
9:35 PM 63.5 °F - 33.6 °F 33% 29.60 in 10.0 mi South 18.4 mph 25.3 mph N/A   Scattered Clouds
9:55 PM 62.6 °F - 34.5 °F 35% 29.60 in 10.0 mi South 19.6 mph 27.6 mph N/A   Scattered Clouds
10:15 PM 62.1 °F - 35.6 °F 37% 29.59 in 10.0 mi South 16.1 mph 25.3 mph N/A   Clear
10:35 PM 61.7 °F - 36.3 °F 39% 29.59 in 10.0 mi South 18.4 mph 25.3 mph N/A   Clear
10:55 PM 61.3 °F - 37.6 °F 41% 29.58 in 10.0 mi South 15.0 mph 23.0 mph N/A   Clear
11:15 PM 61.7 °F - 38.1 °F 42% 29.57 in 10.0 mi South 19.6 mph 23.0 mph N/A   Clear
11:35 PM 61.2 °F - 38.7 °F 43% 29.57 in 10.0 mi South 19.6 mph 24.2 mph N/A   Clear
11:55 PM 61.0 °F - 39.2 °F 45% 29.56 in 10.0 mi South 21.9 mph 28.8 mph N/A   Scattered Clouds